Weather History for Tanger, Morocco

Change the Weather History Date:

Monday, December 10, 2012

  Actual Average Record
Temperature  
Mean Temperature 58 °F -  
Max Temperature 65 °F 61 °F 68 °F (2000)
Min Temperature 51 °F 46 °F 39 °F (2006)
Degree Days  
Heating Degree Days 7    
Growing Degree Days 8 (Base 50)    
Moisture  
Dew Point 53 °F    
Average Humidity 86    
Maximum Humidity 94    
Minimum Humidity 64    
Precipitation  
Precipitation 0.00 in 0.16 in - ()
Sea Level Pressure  
Sea Level Pressure 30.16 in    
Wind  
Wind Speed 6 mph ()    
Max Wind Speed 10 mph    
Max Gust Speed -    
Visibility 4.6 miles    
Events      
Averages and records for this station are not official NWS values.
T = Trace of Precipitation, MM = Missing Value Source: Averaged Metar Reports

Daily Weather History Graph

Daily Weather History Graph

Search for Another Location

Airport:

Trip Planner

Search our weather history database for the weather conditions in past years. The results will help you decide how hot, cold, wet, or windy it might be!

Date:

Astronomy

Dec. 10, 2012 Rise Set
Actual Time 7:22 AM WET 5:10 PM WET
Civil Twilight 6:54 AM WET 5:38 PM WET
Nautical Twilight 6:22 AM WET 6:10 PM WET
Astronomical Twilight 5:51 AM WET 6:41 PM WET
Moon 3:53 AM WET (12/10) 2:45 PM WET (12/10)
Length of Visible Light 10h 44m
Length of Day
9h 47m
Waning Crescent, 12% of the Moon is Illuminated
Dec 10
Waning Crescent
Dec 13
New
Dec 20
First Quarter
Dec 28
Full
Jan 5
Last Quarter

Hourly Weather History & Observations

Time (WET) Temp. Dew Point Humidity Pressure Visibility Wind Dir Wind Speed Gust Speed Precip Events Conditions
12:00 AM 55 °F 52 °F 84% 30.21 in 4 mi East 6.9 mph - -   Scattered Clouds
12:00 AM 55.4 °F 51.8 °F 88% 30.18 in 3.7 mi East 6.9 mph - N/A   Mostly Cloudy
12:30 AM 55.4 °F 51.8 °F 88% 30.18 in 3.7 mi East 8.1 mph - N/A   Mostly Cloudy
1:00 AM 53.6 °F 50.0 °F 88% 30.18 in 3.7 mi East 6.9 mph - N/A   Mostly Cloudy
1:30 AM 53.6 °F 50.0 °F 88% 30.18 in 3.7 mi East 6.9 mph - N/A   Mostly Cloudy
2:00 AM 55.4 °F 51.8 °F 88% 30.18 in 3.7 mi East 9.2 mph - N/A   Mostly Cloudy
2:30 AM 55.4 °F 51.8 °F 88% 30.18 in - East 8.1 mph - N/A   Mostly Cloudy
3:00 AM 55 °F 52 °F 84% 30.19 in 3 mi East 6.9 mph - -   Scattered Clouds
3:00 AM 55.4 °F 51.8 °F 88% 30.18 in - East 6.9 mph - N/A   Mostly Cloudy
3:30 AM 55.4 °F 51.8 °F 88% 30.15 in 3.1 mi East 6.9 mph - N/A   Unknown
4:00 AM 55.4 °F 51.8 °F 88% 30.15 in 3.1 mi East 8.1 mph - N/A   Unknown
4:30 AM 55.4 °F 51.8 °F 88% 30.15 in 3.1 mi East 5.8 mph - N/A   Unknown
5:00 AM 55.4 °F 51.8 °F 88% 30.15 in 3.1 mi ESE 4.6 mph - N/A   Unknown
5:30 AM 55.4 °F 51.8 °F 88% 30.15 in 3.7 mi East 5.8 mph - N/A   Unknown
6:00 AM 54 °F 51 °F 87% 30.18 in 4 mi East 4.6 mph - -   Partly Cloudy
6:00 AM 55.4 °F 51.8 °F 88% 30.15 in 3.7 mi East 4.6 mph - N/A   Scattered Clouds
6:30 AM 53.6 °F 51.8 °F 94% 30.15 in 3.7 mi East 4.6 mph - N/A   Scattered Clouds
7:00 AM 53.6 °F 51.8 °F 94% 30.18 in 3.7 mi East 3.5 mph - N/A   Mostly Cloudy
7:30 AM 53.6 °F 50.0 °F 88% 30.18 in 3.7 mi East 2.3 mph - N/A   Mostly Cloudy
8:00 AM 51.8 °F 48.2 °F 88% 30.18 in 5.0 mi ENE 2.3 mph - N/A   Mostly Cloudy
9:00 AM 56 °F 53 °F 86% 30.21 in 5 mi East 5.8 mph - -   Partly Cloudy
9:00 AM 55.4 °F 53.6 °F 94% 30.18 in 5.0 mi East 5.8 mph - N/A   Mostly Cloudy
10:00 AM 57.2 °F 53.6 °F 88% 30.21 in 5.0 mi East 4.6 mph - N/A   Mostly Cloudy
10:30 AM 57.2 °F 53.6 °F 88% 30.21 in 5.0 mi East 3.5 mph - N/A   Mostly Cloudy
11:00 AM 60.8 °F 57.2 °F 88% 30.21 in 5.0 mi SE 3.5 mph - N/A   Mostly Cloudy
11:30 AM 62.6 °F 53.6 °F 72% 30.18 in 5.0 mi SSW 5.8 mph - N/A   Mostly Cloudy
12:00 PM 64 °F 55 °F 64% 30.19 in 6 mi SSW 5.8 mph - -   Scattered Clouds
12:00 PM 64.4 °F 55.4 °F 73% 30.18 in 6.2 mi South 5.8 mph - N/A   Scattered Clouds
1:00 PM 64.4 °F 55.4 °F 73% 30.15 in 6.2 mi SW 6.9 mph - N/A   Scattered Clouds
2:00 PM 64.4 °F 57.2 °F 77% 30.12 in 6.2 mi WSW 10.4 mph - N/A   Scattered Clouds
2:30 PM 62.6 °F 55.4 °F 77% 30.12 in 6.2 mi WSW 10.4 mph - N/A   Scattered Clouds
3:00 PM 64.4 °F 57.2 °F 77% 30.12 in 6.2 mi WSW 9.2 mph - N/A   Scattered Clouds
3:30 PM 62.6 °F 57.2 °F 82% 30.12 in 6.2 mi WSW 9.2 mph - N/A   Scattered Clouds
4:00 PM 62.6 °F 57.2 °F 82% 30.12 in 6.2 mi WSW 10.4 mph - N/A   Scattered Clouds
4:30 PM 60.8 °F 55.4 °F 82% 30.12 in 6.2 mi West 9.2 mph - N/A   Scattered Clouds
5:00 PM 60.8 °F 55.4 °F 82% 30.12 in 5.0 mi WSW 5.8 mph - N/A   Mostly Cloudy
5:30 PM 59.0 °F 55.4 °F 88% 30.12 in 5.0 mi WSW 3.5 mph - N/A   Mostly Cloudy
6:00 PM 59 °F 55 °F 84% 30.15 in 5 mi WSW 4.6 mph - -   Partly Cloudy
6:00 PM 59.0 °F 55.4 °F 88% 30.12 in 5.0 mi WSW 4.6 mph - N/A   Mostly Cloudy
6:30 PM 59.0 °F 55.4 °F 88% 30.12 in 5.0 mi WSW 3.5 mph - N/A   Mostly Cloudy
7:00 PM 57.2 °F 55.4 °F 94% 30.12 in 5.0 mi SW 2.3 mph - N/A   Mostly Cloudy
7:30 PM 55.4 °F 51.8 °F 88% 30.15 in 5.0 mi Calm Calm - N/A   Mostly Cloudy
8:00 PM 53.6 °F 50.0 °F 88% 30.15 in 5.0 mi Calm Calm - N/A   Mostly Cloudy
8:30 PM 51.8 °F 50.0 °F 94% 30.15 in 3.7 mi SE 2.3 mph - N/A   Scattered Clouds
9:00 PM 53 °F 50 °F 86% 30.16 in 4 mi NE 2.3 mph - -   Partly Cloudy
9:00 PM 51.8 °F 50.0 °F 94% 30.15 in 3.7 mi NE 2.3 mph - N/A   Scattered Clouds
10:00 PM 51.8 °F 50.0 °F 94% 30.15 in 3.7 mi ESE 2.3 mph - N/A   Scattered Clouds
11:00 PM 55.4 °F 53.6 °F 94% 30.15 in 3.7 mi Variable 3.5 mph - N/A   Scattered Clouds